Location: Canazei
(46.4667°N, 11.7667°E)
Time: 17:51:29
(UTC+00:00)

Cosmos 990 Rocket - Pass Details

Date: 21 April 2021
Orbit: 746 x 770 km, 74.0° (Epoch: 11 May)

Event Time Altitude Azimuth Distance (km) Brightness Sun altitude
Exits shadow 01:12:31 57° 135° (SE) 895 4.2 -25.7°
Maximum altitude 01:13:03 60° 107° (ESE) 868 4.2 -25.6°
Drops below altitude 10° 01:18:11 10° 28° (NNE) 2,305 7.5 -25.1°
Sets 01:20:36 0° 25° (NNE) 3,239 8.6 -24.9°
